[[{"header":{"parameterUnit":"m.s-1","parameterCategory":2,"la1":30.2991,"la2":30.254,"lo1":-89.0895,"lo2":-89.0444,"dy":0.0017,"dx":0.0017,"nx":28,"ny":28,"refTime":"2025-12-10T09:00:00:Z","depth":"0","parameterNumber":2,"parameterNumberName":"U-component_of_CURRENTS"},"data":[0,0,0,0,0,0,0,0,0,0,0,0,0,0,0,0,0,0,0,0,0,0,0,0,0,0,0,0,0,0,0,0,0,0,0,0,0,0,0,0,0,0,0,0,0,0,0,0,0,0,0,0,0,0,0,0,0,0,0.3346,0.3343,0,0.3182,0.3181,0.3181,0.3245,0.3248,0.325,0.3253,0.3388,0.3389,0.339,0,0,0,0,0,0,0,0,0,0,0,0,0,0.3445,0.3446,0.3346,0.3343,0.3339,0.3182,0.3181,0.3181,0.3245,0.3248,0.3251,0.3254,0.3387,0.3389,0.339,0,0,0,0,0,0,0,0,0,0,0,0,0,0.3369,0.3446,0.3347,0.3341,0.3338,0.3182,0.3181,0.318,0.3244,0.3248,0.3252,0.3255,0.3387,0.3389,0.3391,0.3331,0,0,0.3397,0.3398,0,0,0,0,0,0,0,0,0.3374,0.3368,0.3346,0.3341,0.3337,0.3224,0.3264,0.324,0.3244,0.3296,0.3253,0.3257,0.3348,0.3353,0.3332,0.3337,0.3343,0.3397,0.3398,0.3399,0.34,0,0,0,0,0,0,0,0.3379,0.3373,0.3297,0.3341,0.3336,0.3252,0.325,0.3259,0.3322,0.3292,0.3292,0.3248,0.3351,0.333,0.3336,0.3345,0.3397,0.3399,0.34,0.3401,0.3468,0.3469,0,0,0,0,0,0,0.3379,0.338,0.3302,0.3291,0.3347,0.3248,0.3246,0.327,0.3315,0.3318,0.3245,0.3251,0.3325,0.3334,0.3342,0.3391,0.3399,0.3401,0.3402,0.3468,0.3469,0.3469,0,0,0,0,0,0,0.3383,0.3376,0.3308,0.3314,0.3298,0.3243,0.3268,0.3264,0.3238,0.3273,0.3287,0.3221,0.3328,0.3339,0.3387,0.3393,0.3402,0.3404,0.3467,0.3468,0.3469,0.3415,0,0,0,0,0,0,0.3388,0.3381,0.3384,0.3317,0.3298,0.3191,0.3263,0.3258,0.3197,0.3205,0.3256,0.3273,0.3332,0.3383,0.3389,0.3396,0.3405,0.3466,0.3468,0.3469,0.3416,0.3414,0.3412,0,0,0,0,0,0.3393,0.3375,0.3387,0.3374,0.3312,0.3186,0.3169,0.315,0.3193,0.315,0.3239,0.3271,0.3395,0.3385,0.3391,0.3399,0.3466,0.3467,0.3469,0.3417,0.3415,0.3412,0,0,0,0,0,0,0.3417,0.3376,0.3389,0.3364,0.3269,0.3191,0.3132,0.3127,0.315,0.318,0.3264,0.3284,0.3339,0.3365,0.3351,0.3426,0.3439,0.3442,0.3398,0.3396,0.3394,0.3394,0.3407,0,0,0,0,0,0.3421,0.3409,0.3331,0.3302,0.3254,0.3194,0.3138,0.3117,0.3116,0.3127,0.3194,0.3272,0.334,0.3366,0.3422,0.3431,0.3454,0.3447,0.3445,0.3443,0.3449,0.347,0.3469,0.3474,0.3474,0.3474,0,0,0.3406,0.3388,0.3374,0.3303,0.3241,0.3186,0.3174,0.3067,0.3091,0.314,0.3224,0.3261,0.3345,0.3395,0.3419,0.3419,0.3456,0.3445,0.3443,0.345,0.3471,0.347,0.347,0.3474,0.3474,0.3474,0,0,0.333,0.3367,0.33,0.3235,0.3119,0.313,0.3096,0.3029,0.307,0.3098,0.3184,0.3206,0.3307,0.3358,0.3403,0.3405,0.3451,0.3439,0.3417,0.3436,0.3435,0.3435,0.3463,0.3465,0.3429,0.3429,0.3429,0,0.3295,0.3269,0.3244,0.3156,0.3139,0.3119,0.3062,0.3083,0.3066,0.3095,0.3132,0.325,0.3292,0.3361,0.3386,0.3397,0.3434,0.3416,0.3431,0.3431,0.3432,0.346,0.3464,0.3427,0.3427,0.3427,0.3427,0,0.3163,0.3144,0.309,0.3061,0.304,0.2969,0.3006,0.3016,0.3093,0.3112,0.3177,0.323,0.3286,0.3307,0.336,0.3389,0.3424,0.3429,0.3429,0.3427,0.3458,0.3463,0.3423,0.3424,0.3425,0.3425,0,0,0.3068,0.3017,0.2992,0.2991,0.3001,0.296,0.3039,0.3072,0.3086,0.3136,0.3171,0.3269,0.3254,0.3304,0.3341,0.3359,0.3381,0.3403,0.3405,0.3418,0.3451,0.346,0.3467,0.3403,0.3404,0.3404,0.347,0,0.2968,0.2856,0.289,0.2859,0.2832,0.2905,0.298,0.3017,0.3084,0.3113,0.3175,0.3215,0.3278,0.3269,0.3309,0.3368,0.3394,0.3364,0.3463,0.3466,0.3463,0.3471,0.3332,0.3378,0.3475,0.3475,0.3476,0,0.2831,0.28,0.2754,0.2807,0.2798,0.2808,0.2919,0.2959,0.3017,0.3056,0.3094,0.314,0.3201,0.3229,0.3349,0.3341,0.3399,0.344,0.3443,0.3476,0.3484,0.3398,0.3383,0.322,0.3483,0.3483,0.3482,0,0.2791,0.2727,0.2741,0.2736,0.2776,0.2795,0.2842,0.2906,0.2931,0.2987,0.2977,0.3082,0.3109,0.3215,0.3335,0.3344,0.3457,0.346,0.3526,0.3527,0.3438,0.3431,0.3263,0.3525,0.3525,0.3525,0.3525,0,0.2715,0.2697,0.2697,0.2669,0.2682,0.2731,0.2724,0.2779,0.2801,0.2818,0.2919,0.2956,0.311,0.3204,0.3318,0.3453,0.3447,0.3531,0.3545,0.3417,0.3408,0.3289,0.3243,0.3527,0.3527,0.3526,0.3526,0,0.2651,0.2657,0.2644,0.2651,0.2652,0.265,0.2635,0.2606,0.2658,0.2679,0.2698,0.2852,0.3005,0.315,0.331,0.341,0.3431,0.3572,0.3424,0.342,0.333,0.3289,0.3164,0.3102,0.3647,0.3648,0.3649,0,0.2612,0.2588,0.2596,0.2584,0.2575,0.2545,0.2521,0.2546,0.2531,0.2637,0.2659,0.2793,0.2932,0.3173,0.3337,0.3516,0.3424,0.3491,0.3469,0.3306,0.3269,0.318,0.313,0.3328,0.3326,0.3324,0.3323,0,0.2511,0.2527,0.2504,0.2494,0.2469,0.2431,0.2396,0.2367,0.2434,0.2466,0.2583,0.2689,0.2935,0.3081,0.3305,0.341,0.3294,0.3464,0.3307,0.3024,0.2899,0.2851,0.3315,0.3307,0.3309,0.331,0.3311,0.3311,0.2438,0.2407,0.2392,0.2411,0.2371,0.2344,0.229,0.2278,0.2282,0.235,0.2499,0.2621,0.2805,0.3112,0.319,0.3161,0.322,0.3105,0.3078,0.301,0.2902,0.3353,0.3356,0.3358,0.336,0.3361,0.3362,0,0.233,0.2324,0.2306,0.2295,0.2249,0.2278,0.2232,0.2182,0.2185,0.2276,0.2367,0.2486,0.2613,0.2737,0.2813,0.2761,0.2689,0.2683,0.2464,0.2449,0.2839,0.2772,0.2629,0.2629,0.2629,0.263,0.263,0.263,0.2265,0.2238,0.2265,0.2209,0.2194,0.2108,0.2094,0.205,0.2067,0.2083,0.2112,0.2206,0.2335,0.2371,0.2305,0.2294,0.2135,0.2083,0.2108,0.2294,0.2328,0.236,0.228,0.2035,0.2035,0.161,0.1606,0.1604]},{"header":{"parameterUnit":"m.s-1","parameterCategory":2,"la1":30.2991,"la2":30.254,"lo1":-89.0895,"lo2":-89.0444,"dy":0.0017,"dx":0.0017,"nx":28,"ny":28,"refTime":"2025-12-10T09:00:00:Z","depth":"0","parameterNumber":3,"parameterNumberName":"V-component_of_CURRENTS"},"data":[0,0,0,0,0,0,0,0,0,0,0,0,0,0,0,0,0,0,0,0,0,0,0,0,0,0,0,0,0,0,0,0,0,0,0,0,0,0,0,0,0,0,0,0,0,0,0,0,0,0,0,0,0,0,0,0,0,0,-0.1402,-0.1401,0,-0.124,-0.1238,-0.1236,-0.1184,-0.1185,-0.1186,-0.1187,-0.1272,-0.1273,-0.1274,0,0,0,0,0,0,0,0,0,0,0,0,0,-0.1435,-0.1436,-0.1402,-0.1401,-0.1399,-0.124,-0.1237,-0.1235,-0.1183,-0.1185,-0.1186,-0.1187,-0.1271,-0.1273,-0.1274,0,0,0,0,0,0,0,0,0,0,0,0,0,-0.136,-0.1437,-0.1403,-0.1356,-0.1351,-0.1241,-0.1237,-0.1234,-0.1183,-0.1185,-0.1186,-0.1188,-0.1271,-0.1273,-0.1275,-0.1256,0,0,-0.1281,-0.1281,0,0,0,0,0,0,0,0,-0.1364,-0.1358,-0.1365,-0.1359,-0.1353,-0.1236,-0.128,-0.1255,-0.1183,-0.1244,-0.1187,-0.1188,-0.1284,-0.1284,-0.1243,-0.126,-0.1264,-0.1281,-0.1282,-0.1283,-0.1283,0,0,0,0,0,0,0,-0.137,-0.1363,-0.1335,-0.1363,-0.1356,-0.1264,-0.1257,-0.1273,-0.1259,-0.1238,-0.1235,-0.1221,-0.1282,-0.1241,-0.1245,-0.1265,-0.1281,-0.1282,-0.1284,-0.1284,-0.1365,-0.1366,0,0,0,0,0,0,-0.1407,-0.137,-0.134,-0.133,-0.1366,-0.1263,-0.1255,-0.127,-0.1254,-0.1251,-0.122,-0.1219,-0.1236,-0.1243,-0.1249,-0.1296,-0.1283,-0.1285,-0.1286,-0.1364,-0.1365,-0.1366,0,0,0,0,0,0,-0.1409,-0.1407,-0.1347,-0.1346,-0.1333,-0.1263,-0.1278,-0.1266,-0.1219,-0.1237,-0.124,-0.1187,-0.1238,-0.1246,-0.129,-0.1297,-0.1285,-0.1287,-0.1363,-0.1365,-0.1366,-0.1348,0,0,0,0,0,0,-0.1411,-0.1409,-0.1419,-0.1351,-0.1335,-0.1262,-0.1277,-0.1261,-0.121,-0.1207,-0.121,-0.1219,-0.124,-0.1287,-0.1291,-0.13,-0.1289,-0.1362,-0.1364,-0.1366,-0.1347,-0.1348,-0.1349,0,0,0,0,0,-0.1413,-0.143,-0.1422,-0.1417,-0.1358,-0.1261,-0.1241,-0.1194,-0.1207,-0.1162,-0.121,-0.1219,-0.1302,-0.1289,-0.1294,-0.1303,-0.1361,-0.1363,-0.1365,-0.1346,-0.1348,-0.1349,0,0,0,0,0,0,-0.1463,-0.1424,-0.1414,-0.1424,-0.1338,-0.1253,-0.1219,-0.1186,-0.1174,-0.1187,-0.1228,-0.1239,-0.128,-0.1296,-0.1281,-0.1335,-0.1333,-0.1337,-0.1317,-0.1319,-0.132,-0.1294,-0.129,0,0,0,0,0,-0.1477,-0.1477,-0.1404,-0.1406,-0.1369,-0.129,-0.1247,-0.1196,-0.1179,-0.117,-0.1204,-0.1248,-0.1288,-0.1309,-0.1337,-0.1361,-0.1342,-0.1373,-0.1374,-0.1375,-0.1359,-0.1331,-0.1327,-0.1374,-0.1374,-0.1374,0,0,-0.1497,-0.1478,-0.1477,-0.1413,-0.1354,-0.1293,-0.1267,-0.1182,-0.1167,-0.119,-0.1224,-0.1249,-0.1296,-0.1331,-0.135,-0.1348,-0.1356,-0.1378,-0.1378,-0.1361,-0.1333,-0.1328,-0.1323,-0.1375,-0.1375,-0.1375,0,0,-0.1498,-0.1515,-0.1483,-0.141,-0.1307,-0.1278,-0.1255,-0.1172,-0.1172,-0.1174,-0.1216,-0.1238,-0.1301,-0.1325,-0.1351,-0.1371,-0.1362,-0.1397,-0.1379,-0.1353,-0.1347,-0.1343,-0.1319,-0.1312,-0.1397,-0.1397,-0.1397,0,-0.1514,-0.1485,-0.145,-0.1376,-0.1344,-0.1282,-0.1225,-0.1204,-0.116,-0.1168,-0.1192,-0.125,-0.1291,-0.1323,-0.135,-0.1369,-0.1358,-0.1368,-0.135,-0.1345,-0.134,-0.1317,-0.1309,-0.1396,-0.1397,-0.1397,-0.1397,0,-0.1451,-0.1426,-0.14,-0.1329,-0.1288,-0.1219,-0.1192,-0.1174,-0.1197,-0.1173,-0.1199,-0.1239,-0.1257,-0.1293,-0.1339,-0.1337,-0.1342,-0.135,-0.1336,-0.1333,-0.131,-0.1303,-0.1396,-0.1396,-0.1396,-0.1396,0,0,-0.1482,-0.1382,-0.1366,-0.1324,-0.1256,-0.1206,-0.1221,-0.1191,-0.1157,-0.1174,-0.1149,-0.1241,-0.1218,-0.1247,-0.1285,-0.1288,-0.1265,-0.1316,-0.1315,-0.1274,-0.1209,-0.1107,-0.1089,-0.1272,-0.1271,-0.127,-0.1207,0,-0.1434,-0.1338,-0.131,-0.1239,-0.1195,-0.117,-0.1177,-0.1144,-0.1141,-0.1102,-0.114,-0.1124,-0.1217,-0.1195,-0.1221,-0.1248,-0.1245,-0.1281,-0.1234,-0.1232,-0.1125,-0.1076,-0.0989,-0.0916,-0.12,-0.1199,-0.1198,0,-0.1365,-0.1321,-0.1264,-0.1196,-0.1172,-0.1135,-0.1113,-0.1081,-0.1033,-0.1018,-0.1002,-0.1003,-0.1029,-0.1079,-0.1124,-0.1147,-0.1176,-0.1201,-0.1199,-0.1098,-0.1114,-0.0966,-0.0891,-0.0956,-0.1186,-0.1187,-0.1188,0,-0.1391,-0.1287,-0.1274,-0.1237,-0.1158,-0.1142,-0.1101,-0.1051,-0.0985,-0.0925,-0.0849,-0.0889,-0.0854,-0.0926,-0.1004,-0.1056,-0.1018,-0.1083,-0.1016,-0.101,-0.0919,-0.0906,-0.0878,-0.1077,-0.1077,-0.1077,-0.1077,0,-0.1357,-0.1313,-0.127,-0.1227,-0.1162,-0.1122,-0.1007,-0.0971,-0.0858,-0.0742,-0.0779,-0.0695,-0.0811,-0.0811,-0.0927,-0.0928,-0.0951,-0.0982,-0.0971,-0.0913,-0.09,-0.0939,-0.1005,-0.1075,-0.1075,-0.1076,-0.1076,0,-0.133,-0.1327,-0.1257,-0.1187,-0.1159,-0.1091,-0.0904,-0.0802,-0.0726,-0.057,-0.0541,-0.0517,-0.0515,-0.0615,-0.0684,-0.0771,-0.0805,-0.0809,-0.073,-0.0709,-0.071,-0.0778,-0.0698,-0.0683,-0.0722,-0.0719,-0.0716,0,-0.1295,-0.1274,-0.1198,-0.1154,-0.1103,-0.0977,-0.0879,-0.0754,-0.0629,-0.0462,-0.0391,-0.0323,-0.0269,-0.0314,-0.0425,-0.0524,-0.0642,-0.0513,-0.0592,-0.0658,-0.0728,-0.0782,-0.0782,-0.0483,-0.0479,-0.0475,-0.0472,0,-0.1189,-0.1186,-0.1117,-0.1045,-0.0962,-0.0822,-0.0669,-0.0557,-0.041,-0.028,-0.0132,-0.0069,-0.0057,-0.0067,-0.0158,-0.0263,-0.0499,-0.0439,-0.0527,-0.0531,-0.0567,-0.0564,-0.0597,-0.0441,-0.0444,-0.0446,-0.0448,-0.0449,-0.1092,-0.1017,-0.0963,-0.088,-0.0807,-0.0691,-0.0543,-0.0388,-0.019,0.004,0.0056,0.0246,0.0208,0.0119,-0.0022,-0.017,-0.0244,-0.0251,-0.0327,-0.0376,-0.0349,-0.0295,-0.0112,-0.0113,-0.0114,-0.0115,-0.0116,0,-0.0919,-0.0869,-0.0793,-0.0699,-0.0603,-0.0599,-0.0418,-0.0254,-0.0028,0.0209,0.038,0.0552,0.0474,0.0327,0.011,-0.0048,-0.0155,-0.0152,-0.0251,-0.0259,-0.0216,-0.0193,0.0007,0.0007,0.0007,0.0008,0.0008,0.0008,-0.0819,-0.0708,-0.0674,-0.0521,-0.0474,-0.0323,-0.0222,-0.0018,0.0197,0.0551,0.079,0.0923,0.0859,0.0329,0.0005,-0.0089,-0.0229,-0.0214,-0.0313,-0.0353,-0.0371,-0.0388,-0.0382,-0.0224,-0.0225,-0.0302,-0.0303,-0.0304]}],[{"header":{"parameterUnit":"m.s-1","parameterCategory":2,"la1":30.2991,"la2":30.254,"lo1":-89.0895,"lo2":-89.0444,"dy":0.0017,"dx":0.0017,"nx":28,"ny":28,"refTime":"2025-12-10T09:00:00:Z","depth":"2","parameterNumber":2,"parameterNumberName":"U-component_of_CURRENTS"},"data":[0,0,0,0,0,0,0,0,0,0,0,0,0,0,0,0,0,0,0,0,0,0,0,0,0,0,0,0,0,0,0,0,0,0,0,0,0,0,0,0,0,0,0,0,0,0,0,0,0,0,0,0,0,0,0,0,0,0,0.1005,0.1009,0,0.1118,0.1116,0.1115,0.0976,0.0974,0.0972,0.097,0.1041,0.1044,0.1048,0,0,0,0,0,0,0,0,0,0,0,0,0,0.0938,0.0935,0.1004,0.1009,0.1014,0.1118,0.1116,0.1114,0.0976,0.0974,0.0972,0.097,0.104,0.1044,0.1048,0,0,0,0,0,0,0,0,0,0,0,0,0,0.0965,0.0934,0.1003,0.0984,0.0987,0.1119,0.1116,0.1114,0.0976,0.0974,0.0971,0.0969,0.1038,0.1043,0.1048,0.1133,0,0,0.1064,0.1067,0,0,0,0,0,0,0,0,0.0963,0.0962,0.0983,0.0986,0.099,0.1062,0.1121,0.1131,0.0977,0.0941,0.097,0.0967,0.107,0.1072,0.1048,0.1137,0.114,0.1065,0.1068,0.107,0.1072,0,0,0,0,0,0,0,0.0961,0.0959,0.1012,0.0989,0.0993,0.1067,0.106,0.112,0.099,0.0944,0.0944,0.1016,0.1066,0.1043,0.1049,0.1141,0.1065,0.1069,0.1073,0.1075,0.131,0.1313,0,0,0,0,0,0,0.101,0.0956,0.1009,0.1019,0.1011,0.1071,0.1063,0.1011,0.099,0.0995,0.1018,0.101,0.1035,0.1043,0.1051,0.1128,0.107,0.1075,0.1078,0.1307,0.1311,0.1315,0,0,0,0,0,0,0.1005,0.1008,0.1005,0.1028,0.1037,0.1077,0.1019,0.1016,0.1048,0.1054,0.1049,0.1065,0.1033,0.1044,0.1117,0.1131,0.1078,0.1082,0.1304,0.1309,0.1313,0.1298,0,0,0,0,0,0,0.1,0.1001,0.0976,0.1026,0.1039,0.11,0.1026,0.1021,0.1112,0.1101,0.1094,0.1092,0.1032,0.1109,0.1122,0.1137,0.1087,0.13,0.1306,0.1311,0.1295,0.1302,0.1308,0,0,0,0,0,0.0995,0.0967,0.097,0.0982,0.0997,0.1108,0.1115,0.1115,0.1118,0.113,0.1121,0.1095,0.1154,0.1117,0.1131,0.1147,0.1297,0.1304,0.1311,0.1292,0.13,0.1307,0,0,0,0,0,0,0.0939,0.0957,0.0959,0.0938,0.1041,0.1098,0.111,0.1176,0.1179,0.1178,0.1147,0.1146,0.1209,0.1218,0.1178,0.124,0.1221,0.1231,0.1201,0.121,0.1216,0.1207,0.1091,0,0,0,0,0,0.0925,0.0879,0.0977,0.0972,0.1002,0.1082,0.1135,0.1187,0.1229,0.1226,0.1204,0.1214,0.1247,0.1261,0.1275,0.1339,0.1377,0.1362,0.1369,0.1374,0.1382,0.1471,0.1485,0.1338,0.1337,0.1337,0,0,0.091,0.0926,0.0901,0.0961,0.0993,0.1045,0.109,0.1206,0.1255,0.1246,0.1224,0.1253,0.1279,0.1296,0.1327,0.1304,0.1439,0.1383,0.1385,0.1392,0.148,0.1494,0.1506,0.1342,0.1341,0.1341,0,0,0.093,0.0856,0.0864,0.0927,0.1069,0.1081,0.1149,0.1235,0.1247,0.1319,0.1304,0.1357,0.1374,0.1369,0.1386,0.1476,0.1482,0.1488,0.1494,0.158,0.1592,0.1603,0.1666,0.1683,0.1474,0.1474,0.1474,0,0.0921,0.0923,0.091,0.0973,0.1011,0.11,0.1168,0.1202,0.1309,0.1339,0.1309,0.1377,0.1398,0.1465,0.1456,0.1485,0.1529,0.1445,0.1584,0.1596,0.1607,0.1669,0.1688,0.1475,0.1475,0.1475,0.1474,0,0.0969,0.0991,0.1001,0.1021,0.1057,0.114,0.1204,0.1246,0.1268,0.1315,0.14,0.1419,0.1458,0.1478,0.1481,0.1582,0.1586,0.1588,0.1548,0.162,0.1683,0.1702,0.1475,0.1475,0.1475,0.1475,0,0,0.0933,0.1002,0.1026,0.1042,0.1097,0.1134,0.1175,0.1247,0.1305,0.135,0.1414,0.1457,0.1492,0.1521,0.1557,0.1619,0.1729,0.1627,0.1632,0.1662,0.191,0.1787,0.1796,0.1747,0.175,0.1753,0.1918,0,0.0992,0.1052,0.1092,0.1143,0.1145,0.1191,0.1195,0.1279,0.1325,0.1384,0.1466,0.1534,0.1504,0.1562,0.161,0.1728,0.1781,0.1684,0.1861,0.1867,0.1725,0.1815,0.1637,0.1758,0.1937,0.194,0.1942,0,0.1074,0.1076,0.1105,0.1149,0.1155,0.1179,0.1186,0.1274,0.1383,0.1432,0.1516,0.158,0.1697,0.1669,0.184,0.1779,0.184,0.1904,0.1911,0.1815,0.178,0.1722,0.1787,0.1975,0.1972,0.197,0.1968,0,0.1017,0.112,0.1096,0.1106,0.1136,0.1162,0.1199,0.1277,0.1369,0.1517,0.1578,0.1689,0.1785,0.1878,0.1969,0.1935,0.2152,0.2126,0.2066,0.2058,0.1951,0.1926,0.2245,0.2245,0.2245,0.2244,0.2244,0,0.106,0.1085,0.1067,0.1054,0.108,0.1119,0.1217,0.1287,0.1415,0.151,0.162,0.1697,0.1845,0.1964,0.2025,0.2095,0.2194,0.2089,0.2101,0.194,0.1913,0.2132,0.2117,0.225,0.2249,0.2248,0.2247,0,0.1113,0.1069,0.1082,0.1064,0.1066,0.1115,0.1257,0.1341,0.1443,0.1584,0.164,0.1765,0.1924,0.2045,0.223,0.2165,0.2264,0.2257,0.2039,0.2018,0.21,0.2083,0.223,0.2227,0.2225,0.2223,0.2221,0,0.111,0.1132,0.1098,0.1097,0.112,0.1198,0.1249,0.1357,0.1434,0.1596,0.163,0.1826,0.1907,0.2108,0.2116,0.2214,0.2284,0.2045,0.1931,0.2107,0.2104,0.209,0.2077,0.1804,0.1799,0.1795,0.1791,0,0.1177,0.1189,0.1163,0.1148,0.1165,0.1269,0.1331,0.1367,0.148,0.1554,0.1633,0.1728,0.1879,0.1884,0.1972,0.1986,0.2012,0.196,0.2266,0.1798,0.1708,0.1703,0.1704,0.1756,0.1759,0.1762,0.1764,0.1765,0.1162,0.1215,0.1152,0.1196,0.1221,0.1266,0.1333,0.1369,0.1438,0.1481,0.1556,0.1603,0.1582,0.163,0.1658,0.1706,0.1817,0.1726,0.1738,0.1755,0.164,0.1546,0.1543,0.1545,0.1547,0.1549,0.1551,0,0.1174,0.1197,0.1209,0.118,0.1253,0.1277,0.1318,0.1334,0.1359,0.1377,0.1429,0.1227,0.125,0.1345,0.1341,0.1327,0.1328,0.1312,0.13,0.1335,0.1366,0.1231,0.1026,0.1025,0.1024,0.1023,0,0,0.1108,0.1098,0.1149,0.1169,0.1214,0.1224,0.1248,0.1248,0.1227,0.1147,0.1115,0.1129,0.1183,0.1002,0.1026,0.1058,0.1191,0.1028,0.1439,0.1455,0.1485,0.1587,0.1414,0,0,0,0,0]},{"header":{"parameterUnit":"m.s-1","parameterCategory":2,"la1":30.2991,"la2":30.254,"lo1":-89.0895,"lo2":-89.0444,"dy":0.0017,"dx":0.0017,"nx":28,"ny":28,"refTime":"2025-12-10T09:00:00:Z","depth":"2","parameterNumber":3,"parameterNumberName":"V-component_of_CURRENTS"},"data":[0,0,0,0,0,0,0,0,0,0,0,0,0,0,0,0,0,0,0,0,0,0,0,0,0,0,0,0,0,0,0,0,0,0,0,0,0,0,0,0,0,0,0,0,0,0,0,0,0,0,0,0,0,0,0,0,0,0,0.0522,0.0515,0,0.0418,0.0423,0.0427,0.0633,0.0633,0.0633,0.0634,0.0666,0.0667,0.0667,0,0,0,0,0,0,0,0,0,0,0,0,0,0.0608,0.0614,0.0523,0.0515,0.0507,0.0417,0.0423,0.0428,0.0633,0.0633,0.0633,0.0634,0.0666,0.0667,0.0668,0,0,0,0,0,0,0,0,0,0,0,0,0,0.0613,0.0615,0.0524,0.0545,0.0541,0.0416,0.0423,0.043,0.0633,0.0633,0.0634,0.0634,0.0666,0.0667,0.0668,0.0669,0,0,0.0671,0.0671,0,0,0,0,0,0,0,0,0.0614,0.062,0.055,0.0543,0.0537,0.0475,0.046,0.0491,0.0633,0.0674,0.0634,0.0634,0.0567,0.0577,0.0658,0.0671,0.0672,0.0671,0.0672,0.0672,0.0672,0,0,0,0,0,0,0,0.0614,0.0622,0.0555,0.054,0.0531,0.0453,0.0467,0.0471,0.068,0.0671,0.0667,0.0541,0.0576,0.0657,0.0659,0.0672,0.0671,0.0672,0.0673,0.0673,0.0732,0.0733,0,0,0,0,0,0,0.0497,0.0625,0.0556,0.0544,0.0495,0.0448,0.0465,0.0554,0.0676,0.0673,0.054,0.0549,0.0655,0.0657,0.066,0.0712,0.0672,0.0673,0.0674,0.0731,0.0732,0.0733,0,0,0,0,0,0,0.0504,0.0502,0.056,0.051,0.0503,0.0441,0.0542,0.055,0.0553,0.0562,0.0578,0.0514,0.0655,0.0658,0.0721,0.0712,0.0674,0.0674,0.073,0.0732,0.0733,0.0786,0,0,0,0,0,0,0.0512,0.0513,0.0563,0.051,0.0498,0.0478,0.0534,0.0545,0.0442,0.0456,0.0544,0.0554,0.0655,0.072,0.0722,0.0713,0.0675,0.0729,0.0731,0.0732,0.0783,0.0789,0.0794,0,0,0,0,0,0.052,0.0593,0.0575,0.0557,0.0574,0.0469,0.0469,0.0464,0.0438,0.0473,0.0573,0.0548,0.073,0.0723,0.0725,0.0715,0.0728,0.073,0.0732,0.078,0.0787,0.0794,0,0,0,0,0,0,0.0617,0.061,0.0592,0.0653,0.0532,0.0476,0.0453,0.0398,0.0504,0.0498,0.0582,0.0603,0.0662,0.0662,0.0651,0.0737,0.0711,0.0714,0.0747,0.0753,0.0759,0.0712,0.0676,0,0,0,0,0,0.0647,0.0749,0.0624,0.0647,0.0589,0.0498,0.0441,0.0396,0.0409,0.0453,0.0551,0.0617,0.0681,0.0693,0.078,0.0797,0.0754,0.0783,0.0788,0.0793,0.0757,0.073,0.0729,0.074,0.074,0.074,0,0,0.0654,0.0655,0.0697,0.0669,0.0604,0.059,0.0493,0.036,0.0392,0.0427,0.061,0.0642,0.0694,0.0801,0.0812,0.0787,0.0771,0.0796,0.08,0.076,0.0732,0.073,0.0729,0.0742,0.0741,0.0741,0,0,0.0609,0.0742,0.0738,0.0716,0.0531,0.0559,0.048,0.0422,0.0462,0.053,0.0596,0.0622,0.0748,0.0818,0.0842,0.0887,0.0816,0.0876,0.0849,0.0826,0.0823,0.0821,0.0776,0.0769,0.0861,0.0861,0.0861,0,0.0596,0.0647,0.0684,0.0652,0.0656,0.0546,0.0518,0.0556,0.0551,0.0558,0.0592,0.0725,0.0769,0.0814,0.0873,0.0895,0.0855,0.0829,0.0831,0.0827,0.0824,0.0778,0.0769,0.0864,0.0863,0.0863,0.0863,0,0.0561,0.0579,0.0565,0.0633,0.0667,0.0613,0.0628,0.0679,0.0702,0.0692,0.0721,0.0807,0.084,0.0866,0.0896,0.0871,0.0844,0.0857,0.081,0.0825,0.0777,0.0767,0.0868,0.0867,0.0866,0.0865,0,0,0.0545,0.0558,0.0538,0.0558,0.0671,0.0672,0.0796,0.0821,0.0789,0.0854,0.084,0.0951,0.0856,0.0873,0.0863,0.0846,0.0814,0.0825,0.0823,0.0771,0.0728,0.0744,0.0734,0.0821,0.082,0.0818,0.0707,0,0.0466,0.0489,0.0536,0.0589,0.0632,0.0725,0.0848,0.0875,0.0907,0.0915,0.0872,0.0869,0.0891,0.0836,0.083,0.0823,0.0786,0.084,0.0725,0.0721,0.0726,0.0723,0.0671,0.057,0.0697,0.0695,0.0694,0,0.0369,0.0451,0.0512,0.0602,0.0616,0.0684,0.0875,0.0882,0.0873,0.0874,0.0826,0.0781,0.0756,0.0757,0.0722,0.0748,0.0717,0.0716,0.0712,0.0689,0.0718,0.0573,0.0546,0.0677,0.0679,0.068,0.0681,0,0.0392,0.0393,0.0501,0.0571,0.0699,0.0736,0.0786,0.0843,0.0829,0.0763,0.0767,0.0698,0.0658,0.0631,0.0639,0.0655,0.0595,0.0623,0.0602,0.0602,0.0512,0.0507,0.056,0.056,0.056,0.056,0.0561,0,0.0349,0.0372,0.0488,0.0568,0.0624,0.0696,0.0655,0.0703,0.0685,0.0663,0.065,0.0678,0.0623,0.0603,0.0594,0.0571,0.0554,0.0571,0.0571,0.0533,0.0532,0.0589,0.0594,0.0556,0.0557,0.0558,0.0559,0,0.0219,0.0333,0.0393,0.0555,0.0604,0.0593,0.06,0.0546,0.0571,0.0561,0.0554,0.0628,0.0621,0.0577,0.0527,0.0521,0.0495,0.0482,0.0433,0.0429,0.0516,0.0525,0.0422,0.0422,0.0422,0.0421,0.0421,0,0.0214,0.0195,0.037,0.0416,0.0443,0.044,0.0447,0.0485,0.0492,0.0583,0.0633,0.0618,0.0701,0.0631,0.052,0.0435,0.048,0.0356,0.0393,0.049,0.05,0.051,0.0519,0.0287,0.0285,0.0284,0.0283,0,0.0122,0.0102,0.0231,0.0315,0.0356,0.0338,0.0383,0.0425,0.0478,0.0572,0.0737,0.0797,0.0721,0.0631,0.0482,0.0442,0.0366,0.0335,0.042,0.0357,0.0361,0.0372,0.0385,0.0273,0.0274,0.0275,0.0276,0.0276,0.0147,0.0102,0.0233,0.0268,0.0294,0.0319,0.0318,0.0424,0.0519,0.073,0.0817,0.0933,0.0753,0.0578,0.0433,0.0259,0.0315,0.0281,0.0284,0.0288,0.032,0.0326,0.0235,0.0236,0.0237,0.0237,0.0238,0,0.016,0.0138,0.018,0.0297,0.0261,0.0288,0.0369,0.0429,0.059,0.0768,0.0938,0.0844,0.0742,0.0563,0.0274,0.0152,0.0126,0.0132,0.0113,0.0124,0.0133,0.0158,0.0029,0.0028,0.0027,0.0026,0,0,0.0238,0.0299,0.0264,0.0325,0.0322,0.0351,0.0403,0.0544,0.0679,0.0881,0.0952,0.1035,0.0794,0.0536,0.032,0.0177,0.0194,0.0153,0.0332,0.0345,0.0356,0.0227,0.0278,0,0,0,0,0]}],[{"header":{"parameterUnit":"m.s-1","parameterCategory":2,"la1":30.2991,"la2":30.254,"lo1":-89.0895,"lo2":-89.0444,"dy":0.0017,"dx":0.0017,"nx":28,"ny":28,"refTime":"2025-12-10T09:00:00:Z","depth":"4","parameterNumber":2,"parameterNumberName":"U-component_of_CURRENTS"},"data":[0,0,0,0,0,0,0,0,0,0,0,0,0,0,0,0,0,0,0,0,0,0,0,0,0,0,0,0,0,0,0,0,0,0,0,0,0,0,0,0,0,0,0,0,0,0,0,0,0,0,0,0,0,0,0,0,0,0,-0.0472,-0.0472,0,-0.0512,-0.0512,-0.0513,-0.051,-0.0509,-0.0508,-0.0507,-0.0544,-0.0546,-0.0548,0,0,0,0,0,0,0,0,0,0,0,0,0,-0.0458,-0.0458,-0.0472,-0.0472,-0.0472,-0.0511,-0.0512,-0.0513,-0.051,-0.0509,-0.0508,-0.0507,-0.0544,-0.0546,-0.0548,0,0,0,0,0,0,0,0,0,0,0,0,0,-0.048,-0.0458,-0.0472,-0.0474,-0.0474,-0.0511,-0.0512,-0.0513,-0.051,-0.0509,-0.0507,-0.0506,-0.0543,-0.0546,-0.0548,-0.0588,0,0,-0.0556,-0.0557,0,0,0,0,0,0,0,0,-0.0478,-0.048,-0.0473,-0.0474,-0.0474,-0.0502,-0.0521,-0.0537,-0.051,-0.0499,-0.0507,-0.0506,-0.053,-0.0533,-0.0546,-0.059,-0.0591,-0.0556,-0.0558,-0.0559,-0.056,0,0,0,0,0,0,0,-0.0477,-0.0479,-0.049,-0.0474,-0.0474,-0.0495,-0.0496,-0.0525,-0.0522,-0.0499,-0.0499,-0.05,-0.053,-0.0544,-0.0547,-0.0592,-0.0556,-0.0559,-0.056,-0.0561,-0.0667,-0.0668,0,0,0,0,0,0,-0.0466,-0.0477,-0.0488,-0.0491,-0.0471,-0.0496,-0.0498,-0.0496,-0.0522,-0.0524,-0.0501,-0.05,-0.054,-0.0544,-0.0549,-0.0563,-0.0559,-0.0561,-0.0563,-0.0666,-0.0667,-0.0669,0,0,0,0,0,0,-0.0465,-0.0466,-0.0487,-0.0483,-0.0487,-0.0497,-0.0496,-0.0498,-0.0468,-0.0523,-0.0525,-0.0464,-0.0539,-0.0545,-0.0544,-0.0566,-0.0563,-0.0565,-0.0664,-0.0666,-0.0668,-0.0614,0,0,0,0,0,0,-0.0465,-0.0466,-0.0471,-0.0482,-0.0487,-0.0488,-0.0497,-0.0499,-0.0473,-0.047,-0.0493,-0.0498,-0.0539,-0.054,-0.0547,-0.0569,-0.0567,-0.0663,-0.0665,-0.0668,-0.0614,-0.0614,-0.0614,0,0,0,0,0,-0.0464,-0.0466,-0.0471,-0.0473,-0.049,-0.0487,-0.0491,-0.0496,-0.0471,-0.0463,-0.0472,-0.0495,-0.0562,-0.0542,-0.055,-0.0573,-0.0662,-0.0665,-0.0667,-0.0614,-0.0614,-0.0614,0,0,0,0,0,0,-0.0461,-0.0466,-0.0471,-0.0475,-0.0473,-0.0485,-0.0481,-0.0467,-0.0467,-0.0435,-0.0488,-0.0495,-0.0515,-0.0547,-0.0524,-0.0617,-0.0625,-0.063,-0.0583,-0.0583,-0.0582,-0.0613,-0.0569,0,0,0,0,0,-0.0465,-0.0466,-0.0469,-0.0471,-0.0462,-0.046,-0.0458,-0.0432,-0.0432,-0.0426,-0.0418,-0.0453,-0.0544,-0.0555,-0.0601,-0.0628,-0.068,-0.0659,-0.0658,-0.0658,-0.0692,-0.0791,-0.0802,-0.0678,-0.0678,-0.0678,0,0,-0.047,-0.0468,-0.0474,-0.0471,-0.0467,-0.0449,-0.0454,-0.0407,-0.0414,-0.0432,-0.0399,-0.043,-0.0549,-0.0594,-0.0608,-0.0613,-0.0709,-0.0661,-0.0659,-0.0695,-0.0795,-0.0807,-0.0818,-0.068,-0.068,-0.0679,0,0,-0.0445,-0.0465,-0.0441,-0.0431,-0.0393,-0.0406,-0.0377,-0.0325,-0.0336,-0.0307,-0.0364,-0.0414,-0.0439,-0.0573,-0.0656,-0.0686,-0.0702,-0.0665,-0.0687,-0.0781,-0.0792,-0.0803,-0.0829,-0.0843,-0.0667,-0.0667,-0.0667,0,-0.0444,-0.0416,-0.0434,-0.039,-0.0392,-0.0377,-0.0341,-0.037,-0.0314,-0.0365,-0.0279,-0.0422,-0.0476,-0.0692,-0.0686,-0.0694,-0.0695,-0.0672,-0.078,-0.0792,-0.0804,-0.0829,-0.0845,-0.0664,-0.0665,-0.0665,-0.0665,0,-0.0387,-0.0363,-0.0341,-0.0308,-0.032,-0.0272,-0.0309,-0.0305,-0.0281,-0.0315,-0.0413,-0.0469,-0.0573,-0.0602,-0.0644,-0.0788,-0.074,-0.0761,-0.0774,-0.0813,-0.0836,-0.0854,-0.0661,-0.0662,-0.0663,-0.0663,0,0,-0.0371,-0.0315,-0.0299,-0.0298,-0.026,-0.0276,-0.0319,-0.0406,-0.049,-0.043,-0.0542,-0.0668,-0.0651,-0.0746,-0.0799,-0.0874,-0.0925,-0.0812,-0.0818,-0.0826,-0.1046,-0.0746,-0.0736,-0.0918,-0.0922,-0.0926,-0.1007,0,-0.0311,-0.0234,-0.0231,-0.021,-0.0192,-0.0245,-0.0332,-0.0414,-0.0471,-0.056,-0.0687,-0.0762,-0.0734,-0.074,-0.0823,-0.0915,-0.0974,-0.0897,-0.1022,-0.1026,-0.0745,-0.075,-0.0939,-0.1021,-0.1025,-0.1028,-0.103,0,-0.0245,-0.0213,-0.0165,-0.0222,-0.0228,-0.024,-0.0417,-0.0472,-0.0661,-0.0692,-0.0784,-0.0822,-0.0959,-0.0881,-0.1063,-0.098,-0.1001,-0.1053,-0.1058,-0.0822,-0.0759,-0.0993,-0.1062,-0.106,-0.1057,-0.1055,-0.1053,0,-0.0253,-0.0189,-0.0174,-0.0168,-0.0221,-0.0279,-0.0332,-0.0509,-0.0611,-0.0741,-0.0773,-0.0933,-0.0968,-0.1051,-0.1071,-0.1052,-0.1224,-0.1241,-0.102,-0.0998,-0.1272,-0.1261,-0.1377,-0.1377,-0.1376,-0.1376,-0.1376,0,-0.0212,-0.0211,-0.0175,-0.0176,-0.0249,-0.0274,-0.0406,-0.05,-0.0633,-0.0711,-0.0802,-0.0832,-0.0991,-0.1071,-0.1107,-0.1064,-0.125,-0.1023,-0.1006,-0.1237,-0.1222,-0.128,-0.1268,-0.1379,-0.1378,-0.1378,-0.1377,0,-0.0249,-0.0194,-0.0212,-0.0235,-0.0249,-0.031,-0.0405,-0.0511,-0.0594,-0.0678,-0.0678,-0.0795,-0.079,-0.094,-0.1077,-0.1066,-0.1101,-0.105,-0.1239,-0.1232,-0.0812,-0.0797,-0.0834,-0.0824,-0.0816,-0.0809,-0.0803,0,-0.0255,-0.0256,-0.0267,-0.0273,-0.0278,-0.0341,-0.0404,-0.0489,-0.0529,-0.0591,-0.0596,-0.0627,-0.0657,-0.068,-0.0793,-0.0859,-0.0848,-0.0902,-0.0898,-0.078,-0.0762,-0.076,-0.0756,-0.079,-0.0788,-0.0785,-0.0783,0,-0.0319,-0.033,-0.0331,-0.0316,-0.0342,-0.0396,-0.0413,-0.0438,-0.0471,-0.0559,-0.0455,-0.0437,-0.0435,-0.0487,-0.0533,-0.0586,-0.0895,-0.0816,-0.0835,-0.0832,-0.0728,-0.0717,-0.0723,-0.0754,-0.0759,-0.0761,-0.0763,0,-0.037,-0.0377,-0.0345,-0.0348,-0.0371,-0.0365,-0.0417,-0.036,-0.0394,-0.0389,-0.0314,-0.0324,-0.0364,-0.0334,-0.0364,-0.0377,-0.0377,-0.0435,-0.0474,-0.0507,-0.0352,-0.0168,-0.0006,0,0,0,0,0,-0.0371,-0.035,-0.0369,-0.0332,-0.0363,-0.0366,-0.0376,-0.0405,-0.0393,-0.0282,-0.0284,-0.0212,-0.0154,-0.0176,-0.0123,-0.0231,-0.0423,-0.0169,-0.0521,-0.0595,-0.0628,-0.047,0,0,0,0,0,0,-0.0356,-0.0353,-0.0348,-0.0309,-0.0292,-0.0309,-0.0314,-0.0324,-0.0238,-0.0219,-0.0198,-0.0165,-0.015,-0.0173,-0.0111,-0.0115,-0.0319,-0.0166,-0.0163,-0.0576,-0.0607,-0.0633,-0.0481,0,0,0,0,0]},{"header":{"parameterUnit":"m.s-1","parameterCategory":2,"la1":30.2991,"la2":30.254,"lo1":-89.0895,"lo2":-89.0444,"dy":0.0017,"dx":0.0017,"nx":28,"ny":28,"refTime":"2025-12-10T09:00:00:Z","depth":"4","parameterNumber":3,"parameterNumberName":"V-component_of_CURRENTS"},"data":[0,0,0,0,0,0,0,0,0,0,0,0,0,0,0,0,0,0,0,0,0,0,0,0,0,0,0,0,0,0,0,0,0,0,0,0,0,0,0,0,0,0,0,0,0,0,0,0,0,0,0,0,0,0,0,0,0,0,0.019,0.019,0,0.0236,0.0237,0.0238,0.033,0.0331,0.0333,0.0335,0.0329,0.0327,0.0325,0,0,0,0,0,0,0,0,0,0,0,0,0,0.0223,0.0222,0.019,0.019,0.0191,0.0236,0.0237,0.0238,0.0329,0.0331,0.0334,0.0335,0.0329,0.0327,0.0325,0,0,0,0,0,0,0,0,0,0,0,0,0,0.0234,0.0222,0.019,0.0241,0.0246,0.0236,0.0237,0.0238,0.0329,0.0332,0.0334,0.0336,0.033,0.0327,0.0325,0.0258,0,0,0.0317,0.0316,0,0,0,0,0,0,0,0,0.0234,0.0233,0.0233,0.0237,0.0243,0.0279,0.0247,0.0242,0.0328,0.0299,0.0335,0.0338,0.0304,0.0304,0.031,0.0258,0.0258,0.0317,0.0315,0.0314,0.0313,0,0,0,0,0,0,0,0.0233,0.0232,0.021,0.0233,0.0239,0.0276,0.028,0.0247,0.0287,0.0302,0.0308,0.031,0.0307,0.0312,0.031,0.0258,0.0317,0.0314,0.0313,0.0312,0.0216,0.0215,0,0,0,0,0,0,0.0218,0.023,0.0208,0.0211,0.0243,0.0273,0.0278,0.0266,0.0289,0.0295,0.0308,0.0314,0.0315,0.0313,0.031,0.0287,0.0314,0.0312,0.031,0.0217,0.0216,0.0214,0,0,0,0,0,0,0.0219,0.0215,0.0206,0.0222,0.0223,0.0269,0.0255,0.0265,0.0334,0.0294,0.03,0.0374,0.0317,0.0314,0.0285,0.0285,0.031,0.0308,0.0218,0.0216,0.0215,0.0204,0,0,0,0,0,0,0.0219,0.0215,0.0232,0.022,0.0222,0.0221,0.0253,0.0264,0.0326,0.0337,0.035,0.0349,0.0319,0.0289,0.0283,0.0282,0.0306,0.0219,0.0217,0.0215,0.0206,0.0203,0.02,0,0,0,0,0,0.022,0.0226,0.0232,0.0232,0.0233,0.0221,0.0226,0.0269,0.0328,0.0345,0.0336,0.0352,0.0274,0.0285,0.0278,0.0277,0.022,0.0218,0.0216,0.0207,0.0203,0.02,0,0,0,0,0,0,0.0249,0.0234,0.0242,0.0244,0.0242,0.0237,0.029,0.0302,0.0316,0.0362,0.0325,0.0319,0.0295,0.0284,0.0298,0.0243,0.0255,0.0251,0.0251,0.0247,0.0244,0.025,0.0304,0,0,0,0,0,0.0257,0.0274,0.0244,0.0259,0.0276,0.0296,0.0315,0.0336,0.0333,0.0352,0.0329,0.0315,0.0268,0.0262,0.0223,0.0191,0.0207,0.019,0.0187,0.0184,0.0183,0.019,0.0188,0.0207,0.0207,0.0207,0,0,0.0266,0.0274,0.0278,0.027,0.0304,0.0282,0.0319,0.0373,0.0337,0.034,0.032,0.0306,0.0256,0.0208,0.0199,0.0209,0.019,0.0181,0.018,0.018,0.0188,0.0186,0.0185,0.0206,0.0206,0.0206,0,0,0.0307,0.0318,0.0353,0.034,0.0382,0.0352,0.0374,0.0377,0.0384,0.0339,0.0328,0.0316,0.025,0.0206,0.0174,0.0136,0.017,0.0139,0.0131,0.0138,0.0137,0.0136,0.0171,0.0174,0.0142,0.0142,0.0142,0,0.0336,0.035,0.036,0.0378,0.0364,0.0379,0.0375,0.0349,0.0325,0.031,0.0338,0.0259,0.0239,0.016,0.0144,0.0132,0.0152,0.0149,0.0136,0.0135,0.0135,0.0171,0.0174,0.0141,0.0141,0.0141,0.0141,0,0.0371,0.039,0.0422,0.0416,0.0385,0.0408,0.0337,0.0317,0.0323,0.0289,0.0254,0.0221,0.018,0.0169,0.0139,0.0114,0.0137,0.0131,0.0151,0.0133,0.0172,0.0175,0.014,0.014,0.014,0.0141,0,0,0.0435,0.0444,0.0473,0.0455,0.0416,0.0386,0.0314,0.0242,0.0213,0.0198,0.0156,0.0101,0.014,0.0107,0.0094,0.0098,0.012,0.0118,0.0118,0.0163,0.0162,0.0076,0.0072,0.0118,0.0118,0.0118,0.0198,0,0.0485,0.0527,0.0489,0.0457,0.0446,0.0371,0.0275,0.0204,0.0163,0.0109,0.0108,0.0079,0.0094,0.0108,0.0105,0.0097,0.0126,0.0101,0.0164,0.0166,0.0099,0.007,0.0118,0.02,0.0201,0.0202,0.0202,0,0.0539,0.0549,0.0584,0.0458,0.045,0.0425,0.0297,0.02,0.0104,0.0085,0.0073,0.006,0.0044,0.0083,0.0097,0.0083,0.0133,0.0148,0.0152,0.0074,0.0083,0.0216,0.0208,0.0208,0.0208,0.0207,0.0207,0,0.0601,0.0584,0.0626,0.06,0.0481,0.0481,0.0389,0.0266,0.0162,0.0115,0.007,0.0058,0.0054,0.0097,0.0112,0.0121,0.0138,0.0156,0.0137,0.0134,0.0198,0.0198,0.0205,0.0205,0.0205,0.0205,0.0204,0,0.0626,0.0652,0.0702,0.0716,0.0704,0.0571,0.0514,0.0423,0.0273,0.0144,0.0112,0.0027,0.0058,0.0041,0.0103,0.0106,0.0143,0.0128,0.0134,0.0194,0.0191,0.0202,0.0201,0.0208,0.0207,0.0206,0.0206,0,0.0686,0.0733,0.0778,0.0765,0.0766,0.077,0.0594,0.0474,0.0366,0.02,0.0182,0.0023,-0.0016,0.0005,0.0053,0.0071,0.0109,0.0123,0.0191,0.0201,0.0119,0.0116,0.0112,0.011,0.0107,0.0105,0.0104,0,0.0713,0.0781,0.0887,0.0922,0.0964,0.092,0.0818,0.0609,0.0431,0.0171,0.0061,-0.002,-0.0102,-0.0061,-0.0064,0.0036,0.0052,0.0101,0.0101,0.0096,0.0104,0.0104,0.0104,0.01,0.01,0.0099,0.0098,0,0.0739,0.0877,0.0889,0.1009,0.1018,0.0904,0.0752,0.0644,0.0322,0.0219,0.0023,-0.0023,-0.0107,-0.0096,-0.0035,0.003,0.007,0.0078,0.0084,0.0084,0.0082,0.0091,0.0094,0.009,0.0092,0.0092,0.0093,0,0.0777,0.082,0.0912,0.099,0.0989,0.0883,0.0809,0.057,0.0384,0.0096,0.0043,-0.0042,-0.0106,-0.0107,-0.0068,-0.0019,-0.0001,0.0065,0.0073,0.0081,0.0014,0.0003,-0.0015,0,0,0,0,0,0.0717,0.0749,0.0832,0.0885,0.0899,0.0896,0.0688,0.0556,0.0306,0.0198,0.0118,0.0052,0.0015,-0.0047,0.0002,-0.0132,-0.0011,-0.0082,0.0069,0.0046,0.0056,-0.0031,0,0,0,0,0,0,0.0672,0.0736,0.0785,0.0783,0.0825,0.0744,0.0642,0.0496,0.0396,0.023,0.0229,0.0117,0.0099,0.0068,0.0047,0.0026,0.0131,-0.0132,-0.0132,0.0041,0.0049,0.0057,-0.0029,0,0,0,0,0]}]]